TimeMST,TemperatureF,Dew PointF,Humidity,Sea Level PressureIn,VisibilityMPH,Wind Direction,Wind SpeedMPH,Gust SpeedMPH,PrecipitationIn,Events,Conditions,WindDirDegrees,DateUTC
12:55 AM,12.9,3.6,66,30.12,10.0,SSE,18.4,25.3,N/A,,Clear,160,2013-02-20 07:55:00
1:55 AM,13.1,3.7,66,30.09,10.0,South,19.6,-,N/A,,Mostly Cloudy,170,2013-02-20 08:55:00
2:55 AM,11.7,3.7,71,30.07,10.0,SSE,20.7,-,N/A,,Clear,160,2013-02-20 09:55:00
3:55 AM,12.7,4.6,70,30.04,10.0,South,20.7,-,N/A,,Clear,170,2013-02-20 10:55:00
4:55 AM,12.6,4.8,71,30.04,10.0,SSE,21.9,26.5,N/A,,Mostly Cloudy,160,2013-02-20 11:55:00
5:55 AM,12.4,4.6,71,30.02,10.0,SSE,20.7,-,N/A,,Mostly Cloudy,160,2013-02-20 12:55:00
6:55 AM,12.7,4.6,70,30.04,10.0,SSE,20.7,-,N/A,,Scattered Clouds,160,2013-02-20 13:55:00
7:55 AM,14.2,5.9,70,30.04,10.0,SSE,17.3,-,N/A,,Scattered Clouds,150,2013-02-20 14:55:00
8:55 AM,20.5,7.9,58,30.01,10.0,South,21.9,26.5,N/A,,Clear,170,2013-02-20 15:55:00
9:55 AM,23.2,7.7,52,30.00,10.0,South,25.3,31.1,N/A,,Mostly Cloudy,170,2013-02-20 16:55:00
10:55 AM,25.7,8.2,48,29.99,10.0,South,21.9,31.1,N/A,,Partly Cloudy,170,2013-02-20 17:55:00
11:55 AM,27.9,9.3,46,29.98,10.0,South,23.0,29.9,N/A,,Partly Cloudy,170,2013-02-20 18:55:00
12:55 PM,31.3,10.4,42,29.96,10.0,South,20.7,29.9,N/A,,Clear,170,2013-02-20 19:55:00
1:55 PM,32.4,12.0,43,29.94,10.0,South,20.7,-,N/A,,Partly Cloudy,170,2013-02-20 20:55:00
2:55 PM,30.9,16.2,54,29.94,10.0,SSE,20.7,26.5,N/A,,Mostly Cloudy,160,2013-02-20 21:55:00
3:55 PM,28.8,15.4,58,29.94,10.0,South,20.7,27.6,N/A,,Overcast,170,2013-02-20 22:55:00
4:55 PM,27.5,16.2,62,29.96,10.0,SSE,24.2,29.9,N/A,,Overcast,160,2013-02-20 23:55:00
5:55 PM,26.6,16.3,65,29.98,10.0,South,16.1,27.6,N/A,,Overcast,170,2013-02-21 00:55:00
6:55 PM,25.3,16.9,70,29.99,10.0,SSE,16.1,21.9,N/A,,Overcast,160,2013-02-21 01:55:00
7:13 PM,24.8,17.6,74,29.99,10.0,SSE,18.4,-,N/A,,Overcast,160,2013-02-21 02:13:00
7:55 PM,25.2,17.4,72,30.00,10.0,SSE,15.0,-,N/A,,Overcast,160,2013-02-21 02:55:00
8:55 PM,25.0,17.8,74,29.99,10.0,South,15.0,-,N/A,,Overcast,170,2013-02-21 03:55:00
9:55 PM,24.4,17.6,75,30.00,10.0,SSE,16.1,23.0,N/A,,Overcast,160,2013-02-21 04:55:00
10:48 PM,24.8,17.6,74,29.99,10.0,South,16.1,-,N/A,,Overcast,170,2013-02-21 05:48:00
10:55 PM,24.3,18.1,77,30.00,10.0,South,17.3,-,N/A,,Overcast,170,2013-02-21 05:55:00
11:55 PM,24.1,18.5,79,29.99,10.0,South,15.0,-,N/A,,Overcast,180,2013-02-21 06:55:00